Bellefontaine, OH

11:15 AM EST on December 05, 2016 (GMT -0500)
Bellefontaine

Weather History for KEDJ - May, 2014

Change the Weather History Date:

Saturday, May 17, 2014

  Actual Average (KDAY) Record (KDAY)
Temperature  
Mean Temperature 46 °F 62 °F  
Max Temperature 53 °F 72 °F 93 °F (1900)
Min Temperature 39 °F 52 °F 33 °F (1895)
Degree Days  
Heating Degree Days 19 5  
Month to date heating degree days 116  
Since 1 July heating degree days 5567  
Cooling Degree Days 0 2  
Month to date cooling degree days 22  
Year to date cooling degree days 32  
Moisture  
Dew Point 39 °F    
Average Humidity 80    
Maximum Humidity 100    
Minimum Humidity 50    
Precipitation  
Precipitation 0.02 in 0.15 in 2.20 in (1974)
Month to date precipitation 2.55  
Year to date precipitation 14.93  
Snow  
Snow 0.00 in 0.00 in 0.00 in ()
Month to date snowfall 0.0  
Since 1 July snowfall 23.3  
Snow Depth -    
Sea Level Pressure  
Sea Level Pressure 30.10 in    
Wind  
Wind Speed 5 mph (West)    
Max Wind Speed 13 mph    
Max Gust Speed 20 mph    
Visibility 10 miles    
Events      
T = Trace of Precipitation, MM = Missing Value Source: NWS Daily Summary

Daily Weather History Graph

Daily Weather History Graph

Search for Another Location

Airport or City:

Trip Planner

Search our weather history database for the weather conditions in past years. The results will help you decide how hot, cold, wet, or windy it might be!

Date:

Astronomy

May. 17, 2014 Rise Set
Actual Time 6:17 AM EDT 8:46 PM EDT
Civil Twilight 5:46 AM EDT 9:17 PM EDT
Nautical Twilight 5:07 AM EDT 9:56 PM EDT
Astronomical Twilight 4:24 AM EDT 10:39 PM EDT
Moon 11:46 PM EDT (5/17) 8:59 AM EDT (5/17)
Length of Visible Light 15h 31m
Length of Day
14h 29m
Waning Gibbous, 89% of the Moon is Illuminated
May 17
Waning Gibbous
May 21
Last Quarter
May 28
New
Jun 5
First Quarter
Jun 13
Full

Hourly Weather History & Observations

Time (EDT) Temp. Windchill Dew Point Humidity Pressure Visibility Wind Dir Wind Speed Gust Speed Precip Events Conditions
12:05 AM 41.0 °F - 41.0 °F 100% 30.01 in 10.0 mi Calm Calm - 0.00 in   Overcast
12:25 AM 42.8 °F 40.1 °F 42.8 °F 100% 30.01 in 10.0 mi SSW 4.6 mph - 0.00 in   Overcast
12:45 AM 42.8 °F 38.6 °F 42.8 °F 100% 30.02 in 10.0 mi SW 6.9 mph - 0.00 in   Overcast
1:05 AM 42.8 °F 38.6 °F 42.8 °F 100% 30.02 in 10.0 mi SW 6.9 mph - 0.00 in   Overcast
1:25 AM 42.8 °F 38.6 °F 42.8 °F 100% 30.01 in 10.0 mi SW 6.9 mph - 0.00 in   Overcast
1:45 AM 42.8 °F 39.3 °F 42.8 °F 100% 30.01 in 10.0 mi SW 5.8 mph - 0.00 in   Overcast
2:05 AM 42.8 °F 38.6 °F 42.8 °F 100% 30.00 in 10.0 mi WSW 6.9 mph - 0.00 in   Mostly Cloudy
2:25 AM 41.0 °F 38.0 °F 41.0 °F 100% 30.00 in 10.0 mi WSW 4.6 mph - 0.00 in   Clear
2:45 AM 39.2 °F 35.0 °F 39.2 °F 100% 29.99 in 10.0 mi SW 5.8 mph - 0.00 in   Clear
3:05 AM 39.2 °F 37.0 °F 39.2 °F 100% 29.99 in 8.0 mi SW 3.5 mph - 0.00 in   Scattered Clouds
3:25 AM 39.2 °F 35.0 °F 39.2 °F 100% 30.00 in 10.0 mi SW 5.8 mph - 0.00 in   Partly Cloudy
3:45 AM 39.2 °F 37.0 °F 39.2 °F 100% 30.00 in 7.0 mi SSW 3.5 mph - 0.00 in   Mostly Cloudy
4:05 AM 41.0 °F 39.0 °F 41.0 °F 100% 30.00 in 8.0 mi SW 3.5 mph - 0.00 in   Mostly Cloudy
4:25 AM 41.0 °F 38.0 °F 41.0 °F 100% 30.01 in 8.0 mi SW 4.6 mph - 0.00 in   Overcast
4:45 AM 42.8 °F 40.1 °F 42.8 °F 100% 30.01 in 8.0 mi WSW 4.6 mph - 0.00 in   Overcast
5:05 AM 42.8 °F 40.1 °F 42.8 °F 100% 30.02 in 9.0 mi WSW 4.6 mph - 0.00 in   Overcast
5:25 AM 42.8 °F 40.1 °F 42.8 °F 100% 30.02 in 9.0 mi WSW 4.6 mph - 0.00 in   Mostly Cloudy
5:45 AM 42.8 °F 41.1 °F 42.8 °F 100% 30.02 in 9.0 mi West 3.5 mph - 0.00 in   Overcast
6:05 AM 42.8 °F - 42.8 °F 100% 30.03 in 10.0 mi Calm Calm - 0.00 in   Overcast
6:25 AM 42.8 °F 41.1 °F 42.8 °F 100% 30.04 in 10.0 mi West 3.5 mph - 0.00 in   Overcast
6:45 AM 42.8 °F - 42.8 °F 100% 30.04 in 8.0 mi Calm Calm - 0.00 in   Overcast
7:05 AM 42.8 °F 41.1 °F 42.8 °F 100% 30.05 in 7.0 mi West 3.5 mph - 0.00 in   Overcast
7:25 AM 42.8 °F 40.1 °F 42.8 °F 100% 30.05 in 7.0 mi West 4.6 mph - 0.00 in   Overcast
7:45 AM 42.8 °F 38.6 °F 42.8 °F 100% 30.06 in 8.0 mi WNW 6.9 mph - 0.00 in   Overcast
8:05 AM 42.8 °F 40.1 °F 42.8 °F 100% 30.06 in 10.0 mi NW 4.6 mph - 0.00 in   Overcast
8:25 AM 42.8 °F - 42.8 °F 100% 30.07 in 10.0 mi Calm Calm - 0.00 in   Overcast
8:45 AM 44.6 °F - 44.6 °F 100% 30.07 in 10.0 mi Calm Calm - 0.00 in   Overcast
9:05 AM 46.4 °F 43.5 °F 44.6 °F 93% 30.08 in 10.0 mi West 5.8 mph - 0.00 in   Mostly Cloudy
9:25 AM 44.6 °F 40.7 °F 42.8 °F 93% 30.08 in 10.0 mi West 6.9 mph - 0.00 in   Mostly Cloudy
9:45 AM 46.4 °F 42.9 °F 42.8 °F 87% 30.09 in 10.0 mi West 6.9 mph - 0.00 in   Mostly Cloudy
10:05 AM 42.8 °F 37.5 °F 41.0 °F 93% 30.10 in 2.0 mi West 9.2 mph - 0.01 in   Overcast
10:25 AM 44.6 °F 39.7 °F 44.6 °F 100% 30.10 in 9.0 mi WNW 9.2 mph - 0.02 in   Mostly Cloudy
10:45 AM 44.6 °F 39.7 °F 42.8 °F 93% 30.10 in 10.0 mi West 9.2 mph - 0.02 in   Mostly Cloudy
11:05 AM 46.4 °F 41.1 °F 42.8 °F 87% 30.11 in 10.0 mi WNW 11.5 mph 16.1 mph 0.00 in   Overcast
11:25 AM 46.4 °F 41.9 °F 41.0 °F 81% 30.11 in 10.0 mi West 9.2 mph - 0.00 in   Mostly Cloudy
11:45 AM 48.2 °F - 41.0 °F 76% 30.12 in 10.0 mi West 8.1 mph - 0.00 in   Overcast
12:05 PM 48.2 °F - 39.2 °F 71% 30.12 in 10.0 mi West 10.4 mph - 0.00 in   Overcast
12:25 PM 48.2 °F - 37.4 °F 66% 30.12 in 10.0 mi WSW 9.2 mph - 0.00 in   Mostly Cloudy
12:45 PM 48.2 °F - 37.4 °F 66% 30.12 in 10.0 mi WSW 11.5 mph - 0.00 in   Mostly Cloudy
1:05 PM 48.2 °F - 35.6 °F 62% 30.12 in 10.0 mi West 10.4 mph - 0.00 in   Mostly Cloudy
1:25 PM 50.0 °F - 35.6 °F 58% 30.12 in 10.0 mi WNW 8.1 mph - 0.00 in   Mostly Cloudy
1:45 PM 51.8 °F - 35.6 °F 54% 30.12 in 10.0 mi West 6.9 mph - 0.00 in   Mostly Cloudy
2:05 PM 51.8 °F - 37.4 °F 58% 30.12 in 10.0 mi WNW 9.2 mph - 0.00 in   Mostly Cloudy
2:25 PM 51.8 °F - 35.6 °F 54% 30.12 in 10.0 mi WNW 12.7 mph 16.1 mph 0.00 in   Mostly Cloudy
2:45 PM 51.8 °F - 35.6 °F 54% 30.13 in 10.0 mi WNW 9.2 mph - 0.00 in   Mostly Cloudy
3:05 PM 53.6 °F - 37.4 °F 54% 30.13 in 10.0 mi WNW 9.2 mph - 0.00 in   Mostly Cloudy
3:25 PM 53.6 °F - 37.4 °F 54% 30.13 in 10.0 mi West 8.1 mph 17.3 mph 0.00 in   Scattered Clouds
3:45 PM 51.8 °F - 33.8 °F 50% 30.13 in 10.0 mi West 9.2 mph 16.1 mph 0.00 in   Scattered Clouds
4:05 PM 51.8 °F - 35.6 °F 54% 30.13 in 10.0 mi NW 10.4 mph 16.1 mph 0.00 in   Mostly Cloudy
4:25 PM 51.8 °F - 33.8 °F 50% 30.12 in 10.0 mi West 6.9 mph - 0.00 in   Mostly Cloudy
4:45 PM 51.8 °F - 33.8 °F 50% 30.12 in 10.0 mi West 8.1 mph - 0.00 in   Mostly Cloudy
5:05 PM 51.8 °F - 33.8 °F 50% 30.13 in 10.0 mi West 10.4 mph - 0.00 in   Partly Cloudy
5:25 PM 50.0 °F - 35.6 °F 58% 30.14 in 10.0 mi WNW 9.2 mph 19.6 mph 0.00 in   Partly Cloudy
5:45 PM 51.8 °F - 35.6 °F 54% 30.14 in 10.0 mi WNW 10.4 mph - 0.00 in   Partly Cloudy
6:05 PM 53.6 °F - 35.6 °F 51% 30.14 in 10.0 mi West 8.1 mph - 0.00 in   Partly Cloudy
6:25 PM 50.0 °F - 35.6 °F 58% 30.15 in 10.0 mi West 9.2 mph - 0.00 in   Clear
6:45 PM 51.8 °F - 35.6 °F 54% 30.15 in 10.0 mi West 8.1 mph - 0.00 in   Clear
7:05 PM 51.8 °F - 33.8 °F 50% 30.15 in 10.0 mi WSW 11.5 mph - 0.00 in   Partly Cloudy
7:25 PM 51.8 °F - 33.8 °F 50% 30.16 in 10.0 mi West 8.1 mph - 0.00 in   Clear
7:45 PM 50.0 °F - 33.8 °F 54% 30.16 in 10.0 mi West 8.1 mph - 0.00 in   Clear
8:05 PM 48.2 °F - 35.6 °F 62% 30.16 in 10.0 mi West 5.8 mph - 0.00 in   Clear
8:25 PM 46.4 °F 45.2 °F 35.6 °F 66% 30.17 in 10.0 mi West 3.5 mph - 0.00 in   Clear
8:45 PM 46.4 °F 45.2 °F 35.6 °F 66% 30.17 in 10.0 mi WSW 3.5 mph - 0.00 in   Clear
9:05 PM 44.6 °F - 35.6 °F 71% 30.18 in 10.0 mi Calm Calm - 0.00 in   Clear
9:25 PM 44.6 °F - 35.6 °F 71% 30.18 in 10.0 mi Calm Calm - 0.00 in   Clear
9:45 PM 42.8 °F - 37.4 °F 81% 30.19 in 10.0 mi Calm Calm - 0.00 in   Clear
10:05 PM 42.8 °F - 35.6 °F 76% 30.20 in 10.0 mi Calm Calm - 0.00 in   Clear
10:25 PM 42.8 °F - 37.4 °F 81% 30.20 in 10.0 mi Calm Calm - 0.00 in   Clear
10:45 PM 42.8 °F - 35.6 °F 76% 30.21 in 10.0 mi Calm Calm - 0.00 in   Clear
11:05 PM 41.0 °F - 35.6 °F 81% 30.21 in 10.0 mi Calm Calm - 0.00 in   Clear
11:25 PM 41.0 °F - 37.4 °F 87% 30.21 in 10.0 mi Calm Calm - 0.00 in   Clear
11:45 PM 39.2 °F - 37.4 °F 93% 30.22 in 10.0 mi Calm Calm - 0.00 in   Clear